Weather History for Laramie, WY

Change the Weather History Date:

Wednesday, October 24, 2012

  Actual Average Record
Temperature  
Mean Temperature 30 °F 39 °F  
Max Temperature 39 °F 53 °F 70 °F (1965)
Min Temperature 21 °F 26 °F 6 °F (1975)
Degree Days  
Heating Degree Days 35 26  
Month to date heating degree days 512 524  
Since 1 July heating degree days 847 1049  
Cooling Degree Days 0 0  
Month to date cooling degree days 0 0  
Year to date cooling degree days 211 67  
Moisture  
Dew Point 28 °F    
Average Humidity 85    
Maximum Humidity 100    
Minimum Humidity 70    
Precipitation  
Precipitation 0.34 in 0.03 in 0.44 in (2000)
Month to date precipitation 0.86 0.65  
Year to date precipitation 5.75 9.91  
Sea Level Pressure  
Sea Level Pressure 29.88 in    
Wind  
Wind Speed 11 mph (NE)    
Max Wind Speed 30 mph    
Max Gust Speed 36 mph    
Visibility 4 miles    
Events Fog , Rain , Snow    
T = Trace of Precipitation, MM = Missing Value Source: NWS Daily Summary

Daily Weather History Graph

Daily Weather History Graph

Search for Another Location

Airport:

Trip Planner

Search our weather history database for the weather conditions in past years. The results will help you decide how hot, cold, wet, or windy it might be!

Date:

Astronomy

Oct. 24, 2012 Rise Set
Actual Time 7:25 AM MDT 6:07 PM MDT
Civil Twilight 6:57 AM MDT 6:35 PM MDT
Nautical Twilight 6:24 AM MDT 7:08 PM MDT
Astronomical Twilight 5:52 AM MDT 7:40 PM MDT
Moon 3:27 PM MDT (10/24) 2:20 AM MDT (10/24)
Length of Visible Light 11h 38m
Length of Day
10h 42m
Waxing Gibbous, 76% of the Moon is Illuminated
Oct 24
Waxing Gibbous
Oct 29
Full
Nov 6
Last Quarter
Nov 13
New
Nov 20
First Quarter

Hourly Weather History & Observations

Time (MDT) Temp. Windchill Dew Point Humidity Pressure Visibility Wind Dir Wind Speed Gust Speed Precip Events Conditions
12:53 AM 32.0 °F 25.6 °F 26.1 °F 79% 29.76 in 10.0 mi East 6.9 mph - N/A   Overcast
1:53 AM 32.0 °F 26.4 °F 25.0 °F 75% 29.77 in 10.0 mi NE 5.8 mph - N/A   Overcast
2:53 AM 33.1 °F 25.5 °F 25.0 °F 72% 29.76 in 6.0 mi NNE 9.2 mph - 0.00 in Snow Light Snow
3:32 AM 30.2 °F 23.4 °F 28.4 °F 93% 29.92 in 10.0 mi NNE 6.9 mph - 0.00 in Snow Light Snow
3:45 AM 30.2 °F 25.4 °F 28.4 °F 93% 29.92 in 8.0 mi NE 4.6 mph - 0.00 in Snow Light Snow
3:53 AM 30.9 °F 24.3 °F 28.0 °F 89% 29.80 in 7.0 mi North 6.9 mph - 0.00 in Snow Light Snow
4:04 AM 30.2 °F 21.3 °F 28.4 °F 93% 29.92 in 8.0 mi North 10.4 mph - 0.00 in Snow Light Snow
4:19 AM 30.2 °F 22.6 °F 28.4 °F 93% 29.92 in 2.5 mi North 8.1 mph - 0.00 in Snow Light Snow
4:28 AM 30.2 °F 23.4 °F 28.4 °F 93% 29.92 in 3.0 mi North 6.9 mph - 0.01 in Snow Light Snow
4:51 AM 30.2 °F 24.3 °F 28.4 °F 93% 29.93 in 1.8 mi North 5.8 mph - 0.01 in Snow Light Snow
4:52 AM 30.0 °F 25.2 °F 28.9 °F 96% 29.85 in 1.8 mi North 4.6 mph - 0.01 in Snow Light Snow
5:04 AM 30.2 °F 24.3 °F 28.4 °F 93% 29.93 in 0.8 mi North 5.8 mph - 0.01 in Snow Light Snow
5:18 AM 30.2 °F 25.4 °F 28.4 °F 93% 29.92 in 1.0 mi NE 4.6 mph - 0.02 in Snow Light Snow
5:49 AM 30.2 °F 23.4 °F 28.4 °F 93% 29.91 in 2.0 mi NE 6.9 mph - 0.04 in Snow Light Snow
5:53 AM 30.0 °F 24.1 °F 28.9 °F 96% 29.85 in 2.5 mi NNE 5.8 mph - 0.04 in Snow Light Snow
6:11 AM 30.2 °F 23.4 °F 28.4 °F 93% 29.92 in 1.5 mi North 6.9 mph - 0.01 in Snow Light Snow
6:53 AM 30.9 °F 26.2 °F 30.9 °F 100% 29.88 in 1.5 mi South 4.6 mph - 0.02 in Snow Light Snow
7:12 AM 32.0 °F 24.8 °F 30.2 °F 93% 29.92 in 1.0 mi South 8.1 mph - 0.01 in Snow Light Snow
7:37 AM 30.2 °F 25.4 °F 30.2 °F 100% 29.90 in 1.5 mi SSE 4.6 mph - 0.03 in Snow Light Snow
7:50 AM 30.2 °F 25.4 °F 30.2 °F 100% 29.90 in 3.0 mi SSE 4.6 mph - 0.03 in Snow Light Snow
7:51 AM 30.9 °F 26.2 °F 30.9 °F 100% 29.87 in 3.0 mi SSE 4.6 mph - 0.03 in Snow Light Snow
8:25 AM 33.8 °F 24.8 °F 30.2 °F 87% 29.89 in 8.0 mi SE 12.7 mph - 0.00 in Snow Light Snow
8:46 AM 33.8 °F 24.3 °F 30.2 °F 87% 29.89 in 10.0 mi SE 13.8 mph - 0.00 in   Overcast
8:53 AM 34.0 °F 24.6 °F 32.0 °F 92% 29.85 in 10.0 mi SSE 13.8 mph - 0.00 in   Overcast
9:53 AM 35.1 °F 24.5 °F 32.0 °F 89% 29.84 in 10.0 mi SE 18.4 mph - N/A   Overcast
10:53 AM 37.0 °F 25.4 °F 33.1 °F 86% 29.80 in 10.0 mi SSE 25.3 mph 35.7 mph N/A   Overcast
11:18 AM 37.4 °F 26.6 °F 33.8 °F 87% 29.83 in 10.0 mi SE 21.9 mph 31.1 mph N/A   Overcast
11:53 AM 37.9 °F 28.2 °F 32.0 °F 79% 29.79 in 10.0 mi SSE 18.4 mph 26.5 mph N/A   Overcast
12:53 PM 39.0 °F 30.3 °F 30.9 °F 73% 29.77 in 10.0 mi SSE 16.1 mph - N/A   Overcast
1:48 PM 37.4 °F 27.8 °F 33.8 °F 87% 29.81 in 10.0 mi SSE 17.3 mph - 0.00 in Rain Light Rain
1:53 PM 37.0 °F 28.9 °F 34.0 °F 89% 29.76 in 10.0 mi SE 12.7 mph - 0.00 in Rain Light Rain
2:20 PM 33.8 °F 23.9 °F 33.8 °F 100% 29.81 in 2.0 mi SSE 15.0 mph - 0.02 in Snow Light Snow
2:28 PM 35.6 °F 26.6 °F 33.8 °F 93% 29.80 in 1.8 mi SSE 13.8 mph - 0.03 in Snow Light Snow
2:35 PM 33.8 °F 23.9 °F 33.8 °F 100% 29.80 in 2.0 mi SSE 15.0 mph - 0.03 in Snow Light Snow
2:42 PM 35.6 °F 27.5 °F 33.8 °F 93% 29.81 in 3.0 mi SSE 11.5 mph - 0.04 in Snow Light Snow
3:06 PM 35.6 °F 29.2 °F 33.8 °F 93% 29.81 in 4.0 mi WSW 8.1 mph - 0.01 in Rain Light Rain
3:12 PM 30.2 °F 21.9 °F 30.2 °F 100% 29.81 in 1.8 mi NW 9.2 mph - 0.01 in Snow Light Snow
3:20 PM 30.2 °F 19.3 °F 28.4 °F 93% 29.81 in 0.5 mi NW 15.0 mph - 0.03 in Fog , Snow Snow
3:53 PM 28.9 °F 18.6 °F 28.9 °F 100% 29.84 in 0.5 mi North 12.7 mph - 0.08 in Fog , Snow Snow
4:26 PM 28.4 °F 17.5 °F 26.6 °F 93% 29.85 in 0.2 mi North 13.8 mph 21.9 mph 0.04 in Fog , Snow Heavy Snow
4:53 PM 27.0 °F 14.7 °F 26.1 °F 96% 29.91 in 0.2 mi NNW 16.1 mph - 0.06 in Fog , Snow Heavy Snow
5:02 PM 26.6 °F 13.8 °F 26.6 °F 100% 29.88 in 0.2 mi North 17.3 mph - 0.00 in Fog , Snow Heavy Snow
5:51 PM 26.6 °F 16.2 °F 26.6 °F 100% 29.91 in 0.2 mi NNW 11.5 mph - 0.03 in Fog , Snow Snow
5:53 PM 27.0 °F 17.3 °F 26.1 °F 96% 29.93 in 0.2 mi North 10.4 mph - 0.03 in Fog , Snow Snow
6:35 PM 26.6 °F 16.2 °F 24.8 °F 93% 29.93 in 1.0 mi NNW 11.5 mph - 0.01 in Snow Light Snow
6:53 PM 26.1 °F 14.0 °F 25.0 °F 96% 29.96 in 1.5 mi NNW 15.0 mph - 0.01 in Snow Light Snow
7:26 PM 26.6 °F 15.7 °F 24.8 °F 93% 29.95 in 1.0 mi NNW 12.7 mph - 0.00 in Snow Light Snow
7:46 PM 26.6 °F 16.2 °F 24.8 °F 93% 29.95 in 1.5 mi North 11.5 mph - 0.00 in Snow Light Snow
7:53 PM 25.0 °F 15.5 °F 24.1 °F 96% 29.99 in 1.2 mi NNE 9.2 mph - 0.00 in Snow Light Snow
8:20 PM 24.8 °F 14.6 °F 21.2 °F 86% 29.95 in 3.0 mi NE 10.4 mph - 0.00 in Snow Light Snow
8:53 PM 23.0 °F 13.1 °F 21.0 °F 92% 29.99 in 6.0 mi NE 9.2 mph - 0.00 in Snow Light Snow
9:53 PM 23.0 °F 11.7 °F 19.9 °F 88% 30.01 in 2.5 mi NE 11.5 mph - 0.00 in Snow Light Snow
10:08 PM 23.0 °F 13.9 °F 19.4 °F 86% 29.99 in 1.8 mi ENE 8.1 mph - 0.00 in Snow Light Snow
10:28 PM 21.2 °F 10.1 °F 19.4 °F 93% 30.00 in 2.0 mi ENE 10.4 mph - 0.00 in Snow Light Snow
10:40 PM 21.2 °F 10.9 °F 19.4 °F 93% 30.00 in 1.8 mi NE 9.2 mph - 0.00 in Snow Light Snow
10:53 PM 21.9 °F 11.0 °F 19.9 °F 92% 30.01 in 1.5 mi NE 10.4 mph - 0.00 in Snow Light Snow
11:53 PM 21.9 °F 15.7 °F 19.9 °F 92% 30.03 in 1.5 mi NNE 4.6 mph - 0.01 in Snow Light Snow